[Date Prev][Date Next][Thread Prev][Thread Next] - [Date Index][Thread Index][Author Index]
2 Line ISS Keps 3-12
- Subject: [sarex] 2 Line ISS Keps 3-12
- From: "Dave Larsen Ph.D." <doc@xxxxxxxxxxx>
- Date: Wed, 12 Mar 2003 01:30:23 -0800
ISS
1 25544U 98067A 03071.17824883 .00029926 00000-0 37244-3 0 7700
2 25544 51.6347 147.4669 0011766 307.4033 91.7500 15.59606175245879
----
Via the sarex mailing list at AMSAT.ORG courtesy of AMSAT-NA.
To unsubscribe, send "unsubscribe sarex" to Majordomo@amsat.org
AMSAT Home